sat.trackr.live / text

‹ back to catalog

STARLINK-30376

NORAD 57782 · 2023-134M

PAYLOAD ACTIVE UNKNOWN

§ Identity

Operator
Country
US
Launch date
2023-09-04
Launch site
AFETR
Launch vehicle
Mass (kg)
RCS (m²)

Purposes: comms

External: N2YO · Heavens-Above · Gunter

§ Orbital elements

Epoch: 2026-05-25T05:12:26.308224Z

Period
94.27 min
Inclination
43.0012°
Eccentricity
0.0001058
Mean motion
15.27580675 rev/d
Perigee alt
482.3 km
Apogee alt
483.8 km
Semi-major
6,861.2 km
B*
2.3832e-5
RAAN
122.0468°
Arg perigee
265.0762°
Mean anomaly
94.9969°
Rev number
15,121

§ Raw data

STARLINK-303761 57782U 23134M   26145.21697116  .00000394  00000+0  23832-4 0  99902 57782  43.0012 122.0468 0001058 265.0762  94.9969 15.27580675151218

JSON: /api/v1/satellites/57782 · /tle

For live sub-satellite position, see the globe view (requires WebGL).

§ Visibility from observer

Set your observer location to see the next 7 days of passes ≥ 10°. The values pass through the URL so the page stays shareable.

No JS? Fill the form by hand. The geolocation button needs JavaScript.